AKST,Max TemperatureF,Mean TemperatureF,Min TemperatureF,Max Dew PointF,MeanDew PointF,Min DewpointF,Max Humidity, Mean Humidity, Min Humidity, Max Sea Level PressureIn, Mean Sea Level PressureIn, Min Sea Level PressureIn, Max VisibilityMiles, Mean VisibilityMiles, Min VisibilityMiles, Max Wind SpeedMPH, Mean Wind SpeedMPH, Max Gust SpeedMPH,PrecipitationIn, CloudCover, Events, WindDirDegrees
2013-1-1,44,40,37,40,33,25,100,75,49,30.36,30.15,29.98,10,9,4,22,10,30,0.78,4,Rain,153
2013-1-2,42,38,33,43,39,34,100,98,92,30.01,29.92,29.83,10,7,3,29,16,37,3.39,8,Rain,148
2013-1-3,42,38,35,40,38,36,100,95,81,29.99,29.90,29.79,10,7,2,18,4,29,0.84,8,Rain,161
2013-1-4,44,42,39,41,38,32,100,91,63,30.10,30.00,29.89,10,10,6,14,6,21,0.02,8,Rain,160
2013-1-5,44,40,37,41,37,31,100,87,60,29.89,29.73,29.66,10,9,3,31,10,39,0.33,8,Rain,162
2013-1-6,41,39,37,38,37,36,100,97,82,29.82,29.72,29.51,10,9,3,15,4,23,0.29,8,Rain,158
2013-1-7,41,38,34,41,37,34,100,99,83,29.84,29.65,29.44,10,8,1,7,4,,0.16,7,Rain-Snow,172
2013-1-8,36,34,32,36,34,30,100,98,89,29.86,29.74,29.57,10,10,10,13,4,,0.05,4,Rain,212
2013-1-9,34,32,30,29,26,25,88,80,70,30.18,29.91,29.61,10,10,10,12,8,,0.00,0,,304
2013-1-10,32,29,26,29,27,25,96,89,82,30.31,30.26,30.21,10,10,10,7,2,,0.00,6,,149
2013-1-11,34,32,30,30,28,27,92,85,78,30.32,30.28,30.25,10,10,10,6,3,,0.00,8,,146
2013-1-12,36,34,32,36,32,30,100,93,85,30.45,30.41,30.32,10,10,6,5,1,,0.00,8,Snow,142
2013-1-13,37,35,33,37,36,34,100,100,100,30.44,30.42,30.40,10,4,2,5,2,,0.14,8,Rain,147
2013-1-14,43,40,37,42,39,37,100,98,87,30.48,30.44,30.41,10,6,0,13,5,,0.05,8,Fog,142
2013-1-15,43,41,39,42,40,37,100,94,87,30.49,30.42,30.36,10,8,4,21,12,29,0.05,8,Rain,135
2013-1-16,45,43,41,43,41,39,97,93,87,30.44,30.31,30.06,10,8,2,22,9,29,0.18,8,Rain,139
2013-1-17,45,43,41,43,41,39,97,93,87,30.05,29.93,29.85,10,6,2,30,17,44,0.77,8,Rain,135
2013-1-18,42,38,33,39,35,33,100,93,83,30.29,30.17,30.00,10,10,6,12,2,,0.02,7,Rain,254
2013-1-19,41,38,36,40,37,33,100,95,89,30.32,30.29,30.27,10,9,6,6,2,,0.01,7,,136
2013-1-20,42,40,37,39,37,36,100,91,79,30.32,30.28,30.24,10,9,4,10,6,,0.06,7,Rain,151
2013-1-21,41,37,33,39,37,34,100,96,93,30.23,30.06,29.87,10,8,0,9,6,,0.01,6,Fog-Rain,148
2013-1-22,42,38,35,39,36,33,96,88,76,29.88,29.77,29.68,10,8,6,15,8,22,0.90,6,Rain,144
2013-1-23,43,41,39,41,39,37,97,92,86,29.82,29.73,29.68,10,8,2,17,10,21,0.70,8,Rain,146
2013-1-24,44,40,39,40,37,34,93,87,73,29.82,29.63,29.37,10,9,5,32,13,46,0.86,8,Rain,142
2013-1-25,44,42,39,40,38,37,100,91,81,29.69,29.57,29.47,10,8,2,22,13,31,1.09,8,Rain,144
2013-1-26,42,40,37,39,37,33,97,91,83,29.76,29.73,29.69,10,9,2,14,8,,0.18,8,Rain,142
2013-1-27,37,35,33,34,31,27,96,88,75,29.90,29.84,29.75,10,6,1,10,4,16,0.11,8,Rain-Snow,156
2013-1-28,35,32,28,32,30,21,96,89,72,30.12,29.90,29.79,10,7,2,14,5,,0.20,8,Snow,227
2013-1-29,37,32,28,37,32,25,100,95,85,30.17,30.07,29.98,10,4,0,12,5,,0.23,8,Fog-Rain-Snow,159
2013-1-30,42,38,35,40,38,36,100,95,85,30.23,30.11,29.89,10,8,3,13,6,21,0.58,8,Rain,156
2013-1-31,44,42,41,43,41,39,100,96,87,30.20,30.01,29.90,10,5,2,16,9,17,0.40,8,Rain,146